{"data":{"norad_id":44358,"epoch":"2026-09-19T08:10:43.638240Z","epoch_age_seconds":161807,"freshness":"FRESH","line1":"1 44358U 19036V   26262.34078285  .00001901  00000+0  13616-3 0  9998","line2":"2 44358  23.9996 353.4673 0000288 130.7620 229.2906 14.96820465396476","mean_motion":14.96820465,"eccentricity":2.88e-5,"inclination_deg":23.9996,"raan_deg":353.4673,"arg_perigee_deg":130.762,"mean_anomaly_deg":229.2906,"bstar":0.00013616,"rev_number":39647,"period_min":96.203922492468,"perigee_km":576.52762599816,"apogee_km":576.92822621791,"semimajor_km":6954.864926108,"source":"CELESTRAK","updated_at":"2026-09-20T09:00:14.526046Z"}}